GFSNW_700_temp_186.txt.gz
Temp
-10 -10 -10 -9 -9 -8 -8 -7 -7 -7 -7 -7 -7 -7 -7 -7 -7 -6 -6 -6 -6 -7 -6 -6 -6 -6 -6 -7 -6 -6 -5 -6 -6 -4 -3 -3 -3 -3 -2 -2 -3 -4 -4 -1
-10 -10 -10 -10 -10 -10 -9 -8 -8 -9 -9 -9 -8 -7 -7 -7 -7 -8 -7 -7 -7 -7 -7 -7 -6 -6 -6 -6 -6 -6 -6 -6 -6 -5 -4 -4 -4 -4 -5 -5 -5 -5 -4 -1
-11 -11 -11 -11 -11 -11 -10 -9 -9 -9 -9 -10 -9 -9 -9 -9 -8 -9 -9 -8 -8 -7 -7 -7 -7 -7 -7 -7 -6 -6 -7 -6 -6 -6 -5 -5 -5 -4 -5 -6 -6 -5 -5 -3
-11 -11 -11 -11 -11 -12 -11 -10 -11 -11 -11 -10 -9 -9 -9 -9 -9 -9 -9 -9 -8 -8 -8 -8 -8 -8 -8 -8 -7 -7 -7 -7 -7 -6 -6 -6 -6 -6 -5 -5 -6 -5 -5 -5
-11 -11 -11 -11 -12 -12 -11 -11 -11 -11 -11 -11 -10 -10 -10 -9 -9 -9 -9 -9 -9 -9 -10 -10 -10 -9 -9 -9 -8 -8 -7 -8 -8 -7 -7 -7 -7 -6 -5 -5 -5 -5 -5 -5
-11 -12 -12 -11 -12 -11 -11 -12 -11 -12 -12 -11 -11 -11 -11 -10 -10 -10 -10 -9 -10 -10 -10 -10 -10 -9 -9 -9 -9 -9 -9 -9 -9 -9 -8 -9 -8 -6 -6 -5 -4 -4 -5 -3
-12 -12 -11 -12 -12 -12 -12 -11 -12 -12 -11 -11 -11 -11 -11 -11 -11 -11 -10 -10 -10 -10 -10 -10 -10 -10 -9 -9 -9 -9 -9 -9 -9 -9 -9 -12 -7 -6 -5 -5 -5 -5 -5 -4
-12 -12 -12 -12 -12 -12 -12 -12 -12 -12 -12 -11 -11 -11 -11 -11 -11 -11 -11 -11 -11 -11 -11 -11 -10 -10 -9 -8 -8 -8 -8 -8 -10 -10 -9 -8 -8 -5 -6 -6 -6 -5 -5 -5
-12 -12 -12 -12 -12 -12 -12 -12 -12 -12 -12 -11 -11 -11 -11 -11 -11 -11 -11 -11 -11 -11 -11 -11 -11 -11 -10 -10 -9 -9 -9 -8 -10 -9 -10 -9 -8 -6 -6 -7 -7 -5 -5 -5
-12 -12 -12 -12 -12 -12 -12 -12 -12 -12 -12 -11 -11 -11 -12 -12 -12 -12 -12 -12 -11 -12 -12 -12 -12 -12 -11 -11 -10 -10 -10 -9 -9 -10 -11 -10 -7 -5 -7 -8 -6 -6 -5 -5
-12 -12 -12 -12 -12 -12 -12 -12 -13 -13 -12 -11 -11 -11 -12 -12 -12 -12 -12 -13 -12 -12 -12 -13 -12 -12 -11 -11 -10 -10 -10 -10 -10 -10 -10 -11 -6 -7 -8 -6 -7 -6 -7 -6
-12 -12 -12 -12 -12 -12 -12 -12 -12 -12 -13 -12 -12 -12 -11 -12 -12 -13 -12 -12 -13 -13 -13 -12 -12 -12 -11 -11 -11 -10 -11 -10 -10 -10 -9 -8 -8 -7 -7 -8 -8 -7 -7 -6
-12 -12 -12 -12 -12 -12 -12 -12 -12 -12 -12 -13 -12 -11 -12 -12 -12 -13 -13 -12 -12 -12 -13 -13 -13 -13 -12 -12 -12 -11 -11 -10 -11 -10 -8 -8 -8 -8 -8 -7 -7 -7 -7 -7
-13 -13 -13 -13 -13 -12 -12 -12 -12 -13 -13 -13 -12 -11 -12 -12 -12 -12 -12 -12 -12 -12 -13 -13 -13 -13 -12 -12 -11 -12 -11 -11 -11 -11 -8 -9 -8 -8 -7 -7 -7 -7 -7 -7
-13 -13 -13 -13 -13 -13 -13 -13 -13 -13 -14 -13 -12 -12 -11 -12 -11 -12 -12 -12 -12 -12 -13 -13 -13 -12 -12 -12 -12 -11 -11 -10 -11 -10 -9 -9 -8 -8 -8 -8 -7 -7 -7 -7
-13 -13 -13 -13 -13 -13 -13 -13 -13 -13 -14 -14 -13 -12 -11 -11 -11 -11 -12 -12 -12 -12 -12 -12 -12 -12 -12 -12 -11 -7 -10 -10 -9 -9 -8 -8 -8 -8 -8 -7 -8 -7 -7 -7
-13 -13 -13 -13 -13 -13 -13 -14 -14 -14 -14 -14 -14 -12 -11 -11 -12 -12 -11 -11 -11 -11 -11 -11 -11 -11 -12 -11 -10 -5 -8 -9 -8 -8 -8 -8 -8 -8 -8 -8 -8 -7 -7 -7
-13 -13 -13 -13 -14 -13 -13 -14 -14 -14 -14 -14 -14 -13 -12 -12 -11 -11 -11 -11 -11 -11 -11 -11 -11 -11 -12 -11 -6 -6 -7 -8 -8 -8 -8 -8 -8 -8 -8 -8 -7 -7 -6 -7
-13 -13 -13 -13 -13 -13 -14 -14 -14 -14 -14 -14 -14 -13 -12 -12 -12 -12 -12 -13 -12 -12 -11 -11 -12 -11 -12 -7 -8 -8 -8 -9 -9 -9 -9 -8 -8 -8 -8 -8 -8 -7 -7 -7
-13 -13 -13 -13 -13 -14 -14 -14 -14 -14 -14 -14 -13 -12 -12 -12 -12 -12 -13 -13 -12 -12 -10 -10 -11 -9 -8 -10 -10 -10 -9 -9 -9 -9 -8 -9 -9 -9 -8 -8 -8 -8 -8 -8
-13 -13 -14 -14 -14 -14 -14 -14 -14 -14 -13 -13 -12 -12 -12 -12 -11 -11 -11 -12 -12 -12 -11 -11 -10 -10 -9 -10 -9 -10 -10 -10 -10 -9 -9 -9 -9 -9 -9 -9 -9 -8 -8 -8
-14 -14 -14 -14 -14 -14 -14 -14 -13 -13 -13 -12 -12 -12 -12 -11 -12 -12 -11 -12 -12 -11 -11 -10 -10 -9 -10 -10 -10 -10 -10 -9 -10 -9 -9 -9 -8 -8 -8 -9 -9 -8 -8 -7
-14 -14 -14 -14 -13 -14 -14 -13 -13 -13 -12 -12 -12 -12 -12 -11 -11 -11 -12 -12 -11 -11 -10 -10 -10 -9 -10 -10 -10 -9 -8 -9 -9 -9 -8 -8 -7 -8 -9 -8 -8 -8 -8 -8
-14 -14 -13 -13 -13 -12 -12 -12 -12 -12 -12 -12 -11 -11 -11 -11 -11 -10 -11 -11 -10 -10 -9 -9 -9 -9 -10 -10 -9 -8 -8 -8 -8 -8 -9 -8 -8 -8 -8 -8 -9 -8 -8 -8
-14 -13 -13 -12 -11 -11 -12 -12 -12 -12 -12 -12 -11 -11 -10 -10 -10 -10 -10 -10 -9 -9 -9 -10 -10 -10 -9 -9 -9 -8 -9 -8 -8 -8 -8 -9 -9 -9 -9 -9 -8 -9 -9 -9
-14 -13 -11 -11 -11 -11 -12 -12 -12 -12 -11 -11 -11 -11 -10 -10 -10 -10 -9 -9 -9 -9 -10 -10 -10 -9 -10 -9 -9 -8 -9 -8 -8 -8 -8 -8 -8 -9 -8 -9 -9 -9 -9 -9
-13 -11 -11 -11 -11 -11 -12 -12 -11 -11 -11 -12 -11 -11 -9 -9 -9 -9 -9 -9 -10 -10 -10 -10 -10 -10 -10 -9 -9 -8 -9 -9 -9 -8 -8 -8 -9 -9 -9 -9 -9 -9 -9 -9

GFSNW_700_temp_189.txt.gz
Temp
-9 -9 -9 -8 -8 -7 -7 -6 -7 -7 -7 -7 -7 -6 -6 -6 -7 -7 -7 -7 -6 -6 -6 -6 -6 -6 -6 -6 -6 -7 -7 -6 -6 -5 -4 -5 -5 -5 -4 -4 -5 -5 -4 -1
-10 -10 -10 -10 -9 -9 -8 -8 -8 -8 -8 -8 -8 -7 -7 -7 -7 -8 -8 -7 -7 -7 -7 -7 -7 -7 -6 -6 -7 -6 -6 -7 -7 -5 -4 -5 -5 -5 -6 -6 -7 -6 -5 -2
-10 -10 -11 -10 -10 -10 -9 -9 -9 -9 -9 -10 -9 -9 -8 -9 -8 -8 -8 -8 -8 -8 -8 -7 -7 -7 -7 -7 -7 -7 -7 -7 -7 -6 -6 -6 -6 -6 -7 -7 -7 -6 -6 -5
-10 -11 -11 -11 -11 -11 -10 -10 -10 -10 -10 -11 -10 -10 -10 -9 -9 -9 -9 -9 -9 -8 -9 -9 -8 -8 -8 -8 -8 -8 -7 -7 -7 -7 -7 -7 -7 -7 -6 -7 -6 -7 -6 -5
-11 -11 -11 -11 -11 -11 -11 -11 -11 -11 -11 -11 -11 -10 -10 -10 -10 -10 -9 -10 -9 -9 -9 -9 -9 -9 -9 -9 -9 -9 -9 -9 -8 -8 -8 -8 -8 -7 -6 -6 -6 -6 -5 -5
-11 -11 -11 -11 -11 -12 -12 -12 -12 -12 -11 -11 -11 -11 -11 -11 -10 -10 -10 -10 -10 -10 -10 -10 -10 -10 -10 -10 -9 -9 -10 -9 -9 -9 -9 -9 -9 -7 -7 -6 -5 -6 -6 -5
-11 -11 -12 -12 -12 -12 -12 -12 -11 -11 -11 -11 -11 -11 -11 -11 -11 -11 -10 -11 -11 -11 -10 -10 -10 -10 -10 -10 -9 -9 -10 -10 -10 -10 -10 -9 -8 -7 -6 -6 -6 -6 -6 -5
-12 -12 -12 -12 -12 -12 -12 -12 -12 -12 -11 -11 -11 -11 -11 -11 -11 -11 -11 -11 -11 -11 -10 -10 -10 -10 -10 -9 -9 -8 -8 -9 -10 -10 -9 -9 -9 -7 -6 -7 -7 -7 -6 -5
-12 -12 -12 -12 -12 -12 -12 -12 -12 -12 -12 -11 -11 -11 -12 -12 -11 -11 -11 -11 -11 -12 -12 -11 -12 -11 -10 -11 -10 -9 -9 -9 -11 -10 -9 -9 -8 -7 -7 -8 -9 -6 -6 -6
-12 -12 -12 -12 -12 -12 -12 -12 -12 -12 -12 -12 -12 -12 -12 -12 -12 -12 -12 -12 -12 -12 -12 -12 -12 -12 -12 -11 -10 -10 -10 -10 -10 -11 -10 -10 -8 -7 -8 -9 -8 -7 -7 -8
-12 -12 -12 -12 -12 -12 -12 -12 -12 -12 -12 -12 -12 -12 -12 -12 -12 -12 -12 -13 -12 -12 -12 -13 -12 -12 -12 -12 -11 -11 -11 -11 -11 -11 -11 -11 -8 -8 -9 -8 -8 -8 -8 -7
-12 -12 -12 -12 -12 -12 -12 -12 -12 -13 -13 -12 -12 -11 -12 -12 -13 -13 -13 -12 -13 -13 -13 -13 -13 -12 -12 -12 -12 -12 -12 -11 -11 -11 -10 -9 -9 -9 -8 -9 -8 -8 -9 -9
-12 -12 -12 -12 -12 -12 -12 -12 -12 -13 -13 -12 -12 -12 -12 -12 -12 -13 -13 -12 -12 -12 -13 -14 -14 -14 -13 -13 -13 -12 -11 -12 -12 -11 -11 -10 -10 -10 -9 -8 -8 -9 -9 -8
-12 -12 -13 -13 -12 -13 -13 -13 -12 -12 -13 -13 -12 -12 -12 -12 -13 -12 -13 -13 -13 -13 -13 -14 -13 -14 -13 -12 -12 -12 -12 -12 -12 -12 -10 -10 -10 -9 -9 -9 -9 -9 -9 -8
-13 -13 -13 -13 -13 -13 -13 -13 -12 -13 -13 -13 -11 -12 -12 -12 -12 -12 -12 -12 -13 -13 -13 -13 -13 -13 -13 -12 -12 -10 -10 -10 -12 -10 -9 -11 -10 -9 -9 -9 -9 -8 -9 -8
-13 -13 -13 -13 -13 -13 -13 -13 -13 -13 -13 -13 -12 -11 -12 -12 -12 -12 -12 -12 -13 -13 -13 -13 -13 -13 -13 -12 -12 -7 -10 -11 -11 -10 -9 -10 -9 -8 -8 -9 -9 -9 -8 -8
-13 -13 -13 -13 -13 -13 -13 -13 -13 -14 -14 -13 -13 -12 -12 -12 -12 -12 -12 -12 -12 -12 -13 -12 -12 -11 -13 -12 -11 -5 -9 -9 -10 -10 -10 -9 -9 -9 -9 -9 -9 -9 -8 -7
-13 -13 -13 -13 -13 -13 -14 -14 -14 -14 -14 -14 -14 -13 -12 -12 -12 -11 -12 -12 -12 -12 -12 -11 -11 -12 -12 -12 -7 -7 -9 -10 -10 -10 -10 -10 -9 -9 -9 -9 -9 -8 -8 -8
-13 -13 -13 -13 -13 -13 -14 -14 -14 -14 -14 -14 -14 -13 -12 -12 -12 -12 -13 -13 -13 -12 -11 -10 -12 -13 -12 -8 -9 -10 -11 -10 -10 -10 -10 -9 -9 -9 -9 -9 -9 -8 -8 -8
-13 -13 -13 -13 -13 -13 -13 -13 -14 -14 -14 -14 -13 -12 -12 -13 -12 -12 -12 -13 -13 -13 -11 -11 -11 -10 -9 -10 -10 -10 -10 -10 -10 -11 -9 -9 -10 -9 -9 -9 -9 -8 -9 -8
-13 -13 -13 -13 -14 -14 -14 -14 -14 -14 -14 -13 -12 -12 -12 -12 -12 -12 -12 -12 -12 -12 -11 -11 -11 -11 -10 -10 -10 -10 -10 -10 -10 -11 -10 -9 -10 -9 -9 -9 -9 -9 -9 -9
-13 -14 -14 -14 -14 -14 -14 -14 -14 -13 -13 -13 -12 -12 -12 -12 -12 -12 -12 -12 -12 -12 -12 -11 -11 -10 -10 -10 -10 -10 -10 -9 -10 -10 -9 -9 -9 -8 -9 -8 -9 -9 -9 -9
-14 -14 -14 -14 -13 -14 -13 -13 -12 -13 -13 -12 -13 -12 -12 -12 -12 -12 -12 -12 -12 -12 -11 -10 -10 -10 -10 -10 -10 -10 -9 -9 -9 -9 -9 -8 -8 -8 -7 -8 -9 -9 -9 -9
-14 -14 -13 -13 -13 -12 -11 -12 -12 -12 -12 -13 -12 -12 -12 -11 -11 -11 -11 -11 -11 -10 -10 -9 -10 -10 -10 -10 -10 -9 -9 -9 -9 -9 -9 -8 -8 -8 -8 -9 -9 -9 -8 -8
-14 -13 -13 -12 -11 -11 -12 -12 -13 -13 -12 -11 -11 -11 -11 -11 -11 -10 -10 -10 -10 -10 -11 -10 -10 -10 -11 -10 -10 -10 -9 -9 -9 -8 -8 -9 -9 -9 -9 -9 -8 -8 -8 -9
-14 -13 -12 -11 -11 -11 -11 -12 -12 -12 -11 -11 -11 -11 -11 -10 -10 -10 -10 -9 -10 -11 -11 -11 -11 -10 -10 -10 -10 -10 -9 -9 -9 -8 -8 -8 -9 -9 -9 -9 -8 -8 -9 -9
-13 -11 -11 -12 -11 -11 -12 -12 -12 -12 -12 -12 -12 -11 -10 -10 -10 -10 -9 -11 -11 -11 -11 -10 -10 -10 -10 -10 -10 -10 -9 -9 -9 -9 -9 -9 -9 -9 -9 -9 -9 -9 -9 -9

GFSNW_700_temp_192.txt.gz
Temp
-7 -7 -8 -8 -7 -7 -7 -7 -7 -6 -6 -6 -6 -6 -7 -6 -7 -6 -6 -7 -6 -5 -5 -5 -5 -5 -5 -6 -6 -5 -6 -6 -5 -4 -4 -5 -4 -5 -5 -5 -5 -6 -4 1
-8 -8 -8 -8 -8 -8 -8 -8 -8 -7 -7 -8 -7 -7 -7 -7 -8 -8 -8 -7 -7 -6 -6 -6 -5 -5 -6 -6 -6 -6 -6 -6 -5 -3 -3 -5 -5 -5 -6 -6 -6 -6 -5 -2
-9 -9 -9 -9 -9 -9 -9 -9 -8 -8 -9 -8 -9 -9 -9 -9 -8 -8 -9 -8 -8 -8 -7 -7 -7 -6 -7 -7 -7 -7 -7 -6 -6 -5 -4 -4 -4 -5 -6 -6 -6 -5 -6 -5
-9 -9 -10 -10 -10 -10 -9 -9 -9 -9 -11 -10 -10 -10 -10 -10 -10 -9 -9 -9 -9 -8 -8 -7 -7 -7 -7 -8 -8 -8 -8 -7 -6 -6 -5 -6 -6 -5 -5 -6 -7 -7 -5 -5
-10 -11 -10 -11 -11 -10 -10 -10 -10 -10 -10 -10 -10 -10 -10 -10 -9 -9 -9 -9 -9 -9 -9 -9 -8 -9 -9 -8 -8 -8 -8 -8 -8 -8 -7 -7 -6 -6 -6 -6 -6 -6 -6 -5
-10 -10 -11 -11 -11 -11 -10 -10 -11 -11 -11 -11 -12 -11 -11 -10 -10 -10 -10 -10 -10 -10 -10 -9 -9 -9 -9 -10 -9 -9 -9 -8 -9 -8 -7 -7 -8 -7 -6 -6 -5 -5 -6 -5
-11 -11 -10 -11 -11 -11 -11 -11 -11 -11 -11 -11 -12 -11 -11 -11 -11 -11 -11 -10 -10 -11 -10 -10 -9 -9 -9 -9 -10 -10 -9 -9 -9 -9 -8 -8 -7 -6 -6 -6 -6 -6 -6 -5
-11 -11 -11 -11 -11 -11 -12 -11 -11 -12 -12 -11 -11 -11 -11 -11 -11 -11 -11 -11 -11 -11 -11 -11 -11 -10 -10 -9 -9 -9 -9 -10 -9 -9 -8 -7 -7 -7 -7 -7 -6 -6 -6 -6
-11 -11 -11 -11 -11 -12 -12 -12 -12 -12 -12 -11 -12 -12 -12 -12 -12 -12 -11 -11 -11 -11 -12 -11 -11 -9 -9 -9 -9 -9 -9 -10 -10 -9 -8 -8 -7 -7 -7 -7 -8 -7 -7 -7
-11 -11 -12 -12 -12 -12 -12 -12 -12 -12 -12 -12 -12 -12 -13 -12 -12 -12 -12 -12 -12 -12 -12 -11 -11 -10 -9 -9 -9 -9 -9 -10 -10 -9 -9 -9 -8 -8 -8 -8 -7 -7 -8 -7
-12 -12 -12 -12 -12 -12 -12 -12 -13 -13 -13 -12 -12 -12 -12 -12 -12 -12 -12 -13 -12 -12 -12 -12 -11 -11 -10 -10 -9 -9 -10 -10 -9 -9 -10 -9 -9 -9 -9 -8 -8 -8 -9 -9
-12 -12 -12 -12 -12 -12 -13 -13 -13 -13 -13 -12 -12 -12 -11 -12 -12 -12 -13 -13 -13 -13 -13 -12 -12 -11 -11 -11 -10 -10 -10 -10 -10 -10 -9 -9 -9 -9 -9 -9 -9 -9 -10 -9
-12 -12 -12 -12 -12 -12 -12 -12 -13 -13 -13 -12 -11 -11 -11 -11 -12 -12 -12 -13 -12 -13 -13 -13 -13 -13 -12 -11 -11 -11 -10 -11 -11 -11 -10 -11 -10 -10 -10 -10 -10 -10 -10 -10
-12 -12 -12 -12 -12 -12 -13 -13 -13 -13 -13 -13 -12 -12 -12 -12 -12 -12 -12 -13 -13 -13 -13 -14 -13 -13 -13 -12 -12 -12 -11 -11 -11 -11 -11 -11 -11 -11 -11 -11 -11 -11 -10 -10
-12 -12 -13 -13 -13 -13 -13 -13 -13 -13 -13 -13 -12 -11 -12 -12 -12 -12 -12 -12 -12 -13 -14 -13 -14 -14 -13 -13 -12 -12 -12 -12 -12 -11 -10 -11 -11 -11 -11 -11 -11 -11 -10 -10
-12 -13 -13 -13 -13 -13 -13 -13 -13 -13 -13 -13 -12 -12 -11 -12 -12 -12 -12 -12 -13 -13 -13 -13 -13 -12 -13 -13 -12 -10 -11 -11 -11 -11 -11 -11 -11 -11 -10 -10 -9 -10 -9 -9
-13 -13 -13 -13 -13 -13 -13 -13 -13 -13 -13 -13 -13 -12 -12 -12 -12 -12 -12 -12 -13 -13 -13 -12 -12 -13 -13 -12 -12 -6 -10 -11 -11 -11 -11 -11 -11 -11 -11 -11 -9 -9 -9 -8
-13 -13 -13 -13 -13 -13 -13 -13 -13 -13 -13 -13 -13 -12 -12 -12 -12 -12 -12 -12 -12 -12 -12 -12 -13 -13 -13 -13 -8 -9 -11 -11 -11 -11 -11 -11 -11 -10 -11 -11 -10 -9 -8 -8
-13 -13 -13 -13 -13 -13 -13 -13 -14 -14 -14 -14 -14 -13 -14 -12 -12 -12 -12 -12 -12 -13 -12 -13 -13 -13 -12 -9 -11 -11 -11 -10 -10 -10 -10 -10 -10 -10 -9 -9 -9 -9 -9 -9
-13 -13 -13 -13 -13 -13 -13 -13 -13 -13 -14 -14 -13 -13 -13 -12 -12 -12 -12 -12 -13 -13 -12 -12 -12 -12 -11 -10 -11 -10 -10 -10 -10 -10 -10 -11 -11 -11 -10 -10 -10 -10 -9 -9
-13 -13 -13 -13 -13 -13 -13 -14 -14 -14 -14 -13 -12 -12 -12 -12 -12 -12 -12 -12 -12 -12 -12 -12 -11 -11 -10 -10 -10 -10 -10 -10 -10 -10 -11 -10 -10 -10 -10 -9 -10 -9 -9 -9
-13 -13 -13 -13 -14 -13 -14 -14 -14 -13 -13 -12 -12 -12 -12 -12 -12 -12 -12 -12 -12 -12 -12 -11 -10 -10 -10 -10 -10 -10 -10 -10 -10 -10 -9 -9 -9 -8 -8 -9 -10 -10 -9 -9
-14 -13 -13 -13 -13 -13 -13 -13 -12 -12 -12 -12 -12 -12 -12 -12 -12 -12 -12 -12 -12 -12 -11 -10 -10 -10 -10 -11 -11 -10 -10 -10 -9 -9 -9 -9 -9 -8 -7 -8 -8 -8 -9 -9
-13 -13 -13 -13 -12 -12 -11 -12 -12 -12 -13 -12 -12 -12 -12 -12 -12 -12 -12 -11 -11 -10 -10 -10 -11 -11 -11 -11 -11 -10 -10 -9 -9 -9 -9 -9 -9 -9 -8 -8 -8 -8 -9 -9
-13 -13 -13 -12 -11 -12 -12 -12 -12 -12 -12 -12 -11 -11 -11 -11 -11 -11 -11 -10 -10 -10 -11 -11 -11 -10 -10 -10 -10 -10 -10 -9 -9 -9 -9 -9 -9 -9 -9 -9 -9 -9 -9 -8
-13 -13 -12 -11 -11 -11 -12 -12 -12 -12 -12 -12 -11 -12 -11 -11 -10 -10 -10 -10 -11 -11 -11 -11 -10 -10 -10 -10 -10 -10 -10 -10 -9 -9 -9 -9 -9 -9 -9 -9 -9 -9 -8 -9
-13 -12 -11 -11 -11 -11 -12 -12 -12 -12 -12 -12 -12 -11 -11 -11 -11 -10 -10 -11 -11 -11 -11 -11 -11 -11 -10 -10 -10 -10 -10 -10 -9 -9 -9 -9 -9 -9 -9 -9 -9 -9 -9 -9

GFSNW_700_temp_195.txt.gz
Temp
-6 -6 -6 -6 -6 -7 -7 -6 -6 -5 -5 -6 -7 -7 -6 -6 -5 -5 -5 -5 -4 -3 -3 -2 -2 -2 -2 -4 -4 -3 -3 -4 -3 -2 -1 -2 -3 -3 -4 -4 -4 -5 -5 -0
-7 -7 -7 -7 -7 -7 -8 -8 -7 -7 -7 -7 -8 -7 -7 -7 -7 -6 -6 -5 -5 -5 -4 -4 -3 -3 -3 -5 -5 -4 -4 -4 -4 -2 -1 -2 -3 -4 -5 -5 -6 -5 -3 -1
-7 -7 -7 -7 -8 -8 -8 -8 -8 -7 -8 -8 -9 -8 -7 -7 -8 -8 -7 -7 -7 -6 -5 -5 -4 -4 -4 -5 -6 -5 -6 -5 -5 -4 -2 -2 -3 -2 -3 -4 -5 -3 -4 -3
-7 -7 -7 -8 -8 -9 -9 -8 -9 -10 -9 -9 -9 -9 -9 -8 -8 -8 -8 -7 -7 -7 -6 -6 -5 -5 -5 -6 -6 -7 -7 -7 -6 -5 -4 -4 -3 -3 -3 -3 -4 -4 -4 -3
-8 -8 -8 -8 -9 -9 -9 -9 -9 -9 -10 -10 -10 -10 -9 -9 -9 -8 -8 -8 -8 -8 -8 -7 -7 -6 -7 -6 -6 -6 -7 -7 -7 -7 -5 -5 -4 -4 -4 -3 -3 -3 -3 -3
-8 -9 -9 -9 -10 -10 -11 -10 -9 -11 -10 -10 -9 -9 -9 -9 -10 -9 -9 -9 -9 -9 -9 -9 -9 -9 -9 -8 -8 -8 -7 -7 -7 -7 -6 -6 -7 -6 -5 -4 -4 -4 -4 -3
-9 -10 -10 -10 -10 -10 -10 -10 -11 -11 -11 -10 -10 -10 -10 -10 -10 -10 -10 -10 -10 -10 -10 -9 -9 -9 -9 -9 -8 -8 -8 -8 -7 -7 -7 -7 -5 -5 -5 -4 -4 -4 -4 -4
-10 -10 -10 -10 -10 -11 -11 -11 -11 -11 -11 -11 -11 -11 -11 -11 -11 -11 -11 -10 -10 -11 -11 -11 -10 -9 -8 -8 -8 -8 -8 -8 -8 -8 -7 -6 -6 -6 -5 -5 -5 -5 -6 -5
-10 -11 -11 -11 -11 -11 -11 -11 -11 -11 -11 -11 -11 -11 -11 -10 -9 -10 -10 -11 -11 -11 -11 -10 -9 -8 -7 -7 -7 -7 -7 -8 -8 -9 -8 -7 -6 -6 -6 -6 -7 -6 -6 -6
-11 -11 -11 -11 -11 -11 -11 -11 -11 -11 -11 -12 -11 -12 -11 -11 -11 -10 -10 -11 -11 -11 -11 -10 -9 -9 -8 -8 -8 -8 -8 -9 -9 -8 -8 -8 -7 -7 -7 -7 -7 -6 -6 -6
-11 -11 -11 -11 -11 -11 -12 -11 -12 -12 -12 -12 -12 -11 -12 -12 -12 -11 -11 -11 -11 -11 -11 -10 -10 -9 -8 -8 -8 -8 -8 -9 -9 -9 -9 -8 -7 -7 -7 -8 -8 -8 -8 -7
-11 -11 -11 -11 -12 -12 -12 -12 -12 -12 -12 -12 -11 -11 -11 -11 -12 -12 -12 -12 -11 -11 -11 -11 -11 -10 -10 -10 -10 -9 -9 -9 -9 -9 -9 -8 -8 -8 -8 -8 -8 -9 -9 -9
-11 -11 -12 -12 -12 -12 -12 -11 -12 -12 -12 -12 -11 -11 -11 -11 -11 -11 -12 -12 -12 -12 -12 -12 -12 -12 -11 -11 -10 -10 -10 -9 -9 -10 -9 -9 -9 -9 -9 -9 -9 -9 -9 -9
-12 -12 -12 -12 -12 -12 -12 -12 -12 -12 -13 -12 -11 -12 -11 -11 -11 -11 -12 -12 -13 -13 -13 -12 -13 -12 -11 -11 -11 -11 -10 -10 -10 -10 -10 -10 -10 -10 -10 -10 -10 -10 -10 -10
-12 -12 -12 -12 -12 -12 -12 -12 -12 -12 -13 -12 -12 -12 -11 -11 -11 -11 -11 -12 -12 -13 -13 -13 -13 -13 -12 -12 -11 -11 -11 -11 -11 -10 -10 -10 -9 -9 -10 -10 -10 -10 -10 -10
-12 -12 -12 -12 -12 -12 -12 -12 -12 -12 -13 -13 -13 -12 -11 -11 -11 -11 -12 -12 -13 -13 -13 -12 -12 -12 -13 -13 -12 -11 -10 -10 -10 -9 -9 -9 -9 -10 -10 -10 -9 -10 -10 -9
-12 -12 -12 -12 -12 -12 -13 -13 -12 -13 -13 -13 -13 -13 -12 -12 -12 -12 -13 -13 -13 -13 -12 -12 -13 -13 -12 -12 -12 -8 -10 -10 -10 -10 -10 -10 -11 -10 -10 -10 -10 -9 -10 -10
-12 -12 -12 -12 -13 -13 -13 -13 -13 -13 -13 -14 -13 -13 -13 -13 -13 -13 -12 -12 -12 -12 -12 -12 -13 -12 -12 -12 -10 -11 -10 -10 -10 -10 -10 -10 -10 -10 -10 -10 -10 -10 -9 -9
-13 -13 -13 -13 -13 -13 -13 -13 -13 -13 -13 -14 -14 -14 -12 -12 -12 -13 -13 -12 -12 -12 -12 -12 -12 -12 -12 -11 -10 -11 -10 -11 -10 -10 -10 -10 -11 -10 -11 -11 -10 -10 -10 -10
-13 -13 -13 -13 -13 -13 -13 -13 -13 -14 -14 -14 -12 -13 -12 -13 -12 -12 -12 -12 -12 -12 -11 -11 -11 -11 -11 -10 -11 -10 -10 -10 -10 -10 -10 -10 -10 -11 -10 -10 -10 -10 -10 -10
-13 -13 -13 -13 -13 -13 -13 -13 -14 -13 -13 -13 -12 -12 -12 -12 -12 -12 -12 -12 -12 -12 -11 -11 -11 -10 -10 -10 -10 -10 -10 -10 -10 -10 -11 -10 -10 -9 -9 -9 -9 -10 -10 -10
-13 -13 -13 -13 -13 -13 -13 -14 -13 -13 -12 -12 -12 -12 -12 -12 -12 -12 -12 -12 -12 -12 -11 -11 -10 -9 -10 -10 -10 -10 -11 -10 -10 -10 -10 -9 -9 -9 -9 -9 -9 -9 -10 -10
-13 -13 -14 -14 -13 -13 -13 -13 -12 -12 -12 -12 -12 -12 -12 -12 -12 -12 -12 -12 -12 -11 -11 -10 -10 -11 -10 -10 -10 -10 -11 -10 -10 -9 -9 -9 -9 -9 -9 -8 -8 -8 -9 -9
-14 -14 -13 -13 -13 -12 -12 -12 -12 -12 -12 -12 -12 -12 -12 -11 -11 -11 -11 -11 -11 -10 -9 -10 -11 -10 -10 -10 -10 -10 -10 -10 -10 -9 -9 -9 -9 -9 -9 -9 -8 -8 -8 -9
-14 -13 -13 -12 -11 -11 -11 -11 -12 -12 -12 -12 -12 -11 -11 -11 -11 -11 -11 -10 -10 -10 -11 -11 -10 -11 -11 -10 -10 -10 -10 -10 -10 -9 -9 -9 -9 -9 -9 -9 -9 -9 -9 -9
-14 -13 -12 -12 -11 -11 -11 -11 -11 -12 -12 -11 -12 -11 -11 -10 -10 -10 -10 -9 -10 -11 -11 -11 -11 -11 -11 -11 -11 -11 -11 -10 -10 -10 -9 -9 -9 -9 -9 -9 -9 -9 -9 -9
-13 -12 -11 -11 -11 -11 -11 -11 -12 -12 -11 -11 -12 -11 -11 -11 -11 -10 -10 -10 -10 -11 -11 -11 -11 -12 -12 -11 -11 -11 -11 -11 -10 -10 -10 -10 -10 -9 -9 -9 -9 -9 -9 -9

GFSNW_700_temp_198.txt.gz
Temp
-5 -5 -5 -5 -4 -4 -4 -3 -4 -4 -4 -5 -5 -5 -5 -5 -5 -4 -3 -4 -4 -4 -3 -2 -2 -1 -1 -2 -3 -3 -3 -3 -3 -1 -1 -1 -2 -2 -3 -3 -3 -4 -4 -1
-5 -6 -5 -5 -5 -5 -5 -4 -5 -6 -5 -6 -6 -6 -6 -5 -5 -5 -5 -4 -4 -4 -4 -3 -3 -2 -2 -4 -4 -3 -4 -4 -4 -2 -1 -1 -1 -2 -4 -4 -5 -4 -3 -1
-5 -5 -5 -5 -6 -6 -6 -6 -6 -6 -7 -6 -7 -7 -7 -6 -6 -7 -6 -6 -5 -5 -5 -5 -4 -3 -3 -3 -5 -5 -5 -5 -4 -4 -3 -3 -3 -3 -3 -4 -5 -3 -3 -3
-6 -6 -6 -6 -6 -7 -7 -7 -8 -8 -7 -7 -7 -7 -7 -6 -6 -6 -7 -6 -6 -6 -6 -5 -5 -5 -4 -4 -6 -6 -6 -5 -5 -5 -5 -4 -4 -3 -3 -2 -2 -2 -3 -2
-7 -7 -7 -7 -7 -7 -8 -8 -8 -8 -8 -9 -9 -9 -8 -8 -7 -7 -7 -8 -7 -7 -7 -7 -7 -7 -7 -7 -6 -7 -6 -7 -7 -6 -6 -5 -5 -4 -3 -3 -2 -2 -2 -2
-7 -7 -8 -8 -8 -9 -10 -9 -8 -9 -9 -9 -8 -8 -8 -8 -8 -8 -8 -8 -8 -8 -8 -8 -8 -8 -8 -8 -8 -7 -7 -7 -7 -7 -6 -6 -7 -6 -5 -4 -4 -3 -3 -3
-8 -8 -8 -9 -9 -9 -9 -10 -10 -9 -9 -9 -8 -8 -9 -8 -9 -9 -9 -9 -9 -9 -9 -9 -9 -9 -9 -8 -8 -8 -8 -7 -7 -8 -7 -7 -5 -5 -4 -4 -4 -4 -4 -4
-8 -8 -9 -9 -9 -10 -10 -10 -10 -10 -9 -9 -9 -10 -10 -9 -10 -10 -10 -9 -9 -10 -10 -10 -10 -9 -8 -8 -7 -7 -7 -7 -8 -8 -7 -7 -6 -6 -5 -5 -5 -6 -5 -6
-9 -9 -10 -9 -9 -10 -10 -9 -9 -9 -9 -10 -10 -10 -10 -10 -9 -9 -9 -9 -10 -10 -10 -10 -9 -8 -7 -7 -7 -6 -6 -7 -8 -9 -8 -8 -6 -6 -6 -6 -6 -6 -7 -6
-10 -10 -10 -10 -10 -10 -10 -10 -11 -11 -10 -10 -11 -10 -10 -10 -10 -9 -9 -10 -10 -10 -10 -10 -9 -9 -8 -8 -7 -7 -7 -7 -8 -8 -9 -8 -7 -7 -7 -7 -8 -7 -7 -7
-10 -10 -10 -11 -11 -11 -11 -11 -11 -10 -10 -11 -11 -11 -11 -11 -11 -11 -10 -10 -10 -10 -10 -10 -10 -9 -9 -8 -8 -8 -8 -8 -8 -8 -8 -8 -8 -8 -8 -8 -8 -8 -8 -8
-10 -10 -11 -11 -11 -11 -11 -11 -11 -11 -11 -11 -10 -11 -10 -10 -11 -11 -11 -11 -10 -11 -11 -11 -11 -10 -10 -10 -10 -9 -9 -9 -9 -10 -10 -9 -9 -9 -8 -8 -8 -8 -9 -8
-10 -11 -11 -11 -11 -11 -11 -11 -11 -11 -11 -11 -10 -11 -11 -11 -10 -11 -11 -10 -11 -11 -11 -11 -11 -11 -11 -11 -10 -10 -10 -10 -10 -10 -9 -9 -9 -9 -9 -9 -9 -9 -9 -9
-11 -11 -11 -11 -12 -11 -11 -11 -11 -11 -12 -11 -11 -12 -11 -11 -11 -11 -11 -11 -11 -12 -12 -12 -12 -12 -12 -11 -11 -11 -11 -10 -10 -10 -10 -10 -9 -9 -9 -9 -9 -9 -9 -9
-12 -12 -11 -11 -11 -11 -11 -11 -11 -12 -12 -12 -11 -11 -11 -11 -12 -11 -11 -12 -12 -12 -12 -12 -12 -12 -12 -12 -11 -11 -10 -11 -11 -11 -9 -10 -9 -10 -10 -10 -10 -10 -10 -10
-12 -11 -11 -11 -11 -11 -12 -11 -11 -12 -12 -12 -12 -12 -11 -12 -12 -11 -12 -12 -13 -12 -12 -12 -11 -11 -12 -12 -12 -9 -11 -10 -10 -10 -10 -10 -10 -10 -10 -10 -10 -9 -9 -9
-11 -11 -11 -11 -11 -12 -12 -12 -12 -12 -12 -13 -13 -12 -12 -12 -12 -12 -12 -12 -12 -12 -12 -11 -11 -11 -12 -12 -12 -7 -10 -10 -10 -10 -10 -10 -10 -10 -10 -10 -10 -10 -10 -10
-12 -12 -12 -12 -12 -12 -12 -12 -12 -12 -12 -13 -13 -13 -12 -12 -12 -12 -12 -12 -12 -12 -11 -11 -11 -11 -12 -12 -9 -11 -10 -10 -10 -10 -10 -10 -10 -10 -10 -10 -10 -10 -10 -10
-12 -12 -12 -12 -12 -12 -12 -12 -12 -12 -13 -13 -13 -13 -12 -12 -12 -12 -12 -11 -11 -11 -11 -11 -12 -12 -11 -10 -11 -10 -10 -10 -10 -10 -10 -10 -10 -11 -10 -11 -10 -11 -10 -10
-13 -13 -13 -13 -12 -12 -12 -12 -13 -13 -13 -13 -12 -12 -12 -12 -12 -12 -11 -11 -11 -12 -11 -11 -11 -10 -11 -10 -10 -10 -11 -11 -11 -11 -10 -10 -10 -10 -10 -9 -9 -9 -9 -10
-13 -13 -13 -13 -12 -13 -13 -13 -13 -13 -12 -12 -11 -12 -12 -12 -12 -12 -12 -11 -11 -11 -11 -11 -11 -10 -10 -10 -11 -10 -11 -11 -11 -11 -11 -10 -10 -10 -9 -9 -9 -9 -9 -9
-13 -13 -13 -13 -13 -13 -13 -13 -13 -12 -12 -11 -11 -12 -12 -12 -12 -12 -12 -11 -11 -11 -10 -10 -10 -10 -11 -10 -10 -10 -11 -11 -11 -11 -10 -10 -10 -9 -9 -9 -10 -9 -9 -9
-13 -13 -13 -13 -13 -13 -13 -13 -11 -12 -12 -12 -12 -12 -11 -11 -12 -12 -12 -11 -11 -11 -10 -10 -10 -10 -10 -10 -10 -10 -11 -11 -11 -11 -10 -10 -9 -9 -10 -10 -9 -8 -8 -9
-13 -13 -13 -13 -13 -13 -12 -12 -11 -11 -11 -11 -11 -11 -11 -11 -11 -11 -11 -11 -11 -10 -9 -10 -10 -10 -11 -11 -11 -11 -11 -11 -11 -11 -10 -10 -10 -9 -10 -10 -9 -9 -9 -9
-13 -13 -13 -13 -12 -12 -12 -11 -11 -11 -11 -11 -11 -11 -11 -11 -11 -11 -11 -10 -10 -9 -10 -11 -11 -11 -11 -11 -11 -11 -11 -11 -11 -11 -10 -10 -10 -10 -10 -9 -9 -9 -9 -9
-13 -13 -12 -12 -12 -12 -12 -11 -11 -11 -11 -11 -11 -11 -11 -10 -10 -10 -10 -10 -9 -10 -11 -11 -11 -11 -11 -11 -11 -11 -11 -11 -11 -11 -11 -10 -10 -10 -10 -9 -9 -9 -9 -9
-13 -13 -12 -12 -12 -11 -11 -11 -11 -11 -11 -11 -11 -11 -10 -10 -10 -10 -10 -10 -10 -10 -11 -11 -11 -11 -11 -12 -12 -12 -11 -11 -11 -11 -11 -10 -10 -10 -10 -10 -9 -9 -9 -9

GFSNW_700_temp_201.txt.gz
Temp
-4 -3 -2 -2 -3 -5 -7 -7 -6 -4 -3 -3 -4 -4 -4 -3 -3 -3 -3 -3 -3 -3 -3 -3 -3 -3 -3 -2 -2 -4 -3 -4 -3 -3 -2 -1 -1 -2 -3 -4 -4 -4 -4 -2
-3 -3 -3 -4 -6 -7 -5 -4 -4 -4 -4 -4 -4 -4 -5 -4 -4 -5 -4 -4 -4 -4 -4 -4 -4 -4 -3 -3 -3 -4 -4 -5 -5 -3 -2 -1 -2 -3 -3 -4 -4 -4 -4 -3
-4 -7 -8 -6 -5 -5 -5 -4 -4 -5 -5 -4 -4 -4 -5 -5 -5 -5 -5 -5 -4 -5 -5 -5 -5 -5 -4 -4 -5 -5 -5 -5 -6 -6 -3 -3 -3 -3 -3 -4 -5 -5 -4 -4
-6 -5 -5 -5 -5 -5 -5 -4 -4 -5 -5 -5 -5 -5 -6 -6 -6 -6 -6 -6 -6 -6 -6 -6 -5 -5 -5 -4 -6 -5 -6 -6 -5 -5 -5 -5 -5 -5 -4 -4 -4 -4 -4 -4
-7 -6 -6 -6 -6 -5 -5 -5 -5 -5 -6 -6 -6 -6 -6 -6 -6 -6 -7 -7 -7 -7 -7 -7 -7 -7 -6 -6 -6 -6 -7 -7 -7 -7 -7 -6 -6 -6 -5 -5 -5 -4 -4 -4
-6 -6 -6 -6 -6 -6 -6 -6 -6 -7 -8 -8 -8 -7 -7 -8 -8 -7 -7 -8 -8 -8 -8 -8 -8 -8 -8 -7 -7 -7 -8 -8 -8 -8 -7 -7 -7 -5 -5 -5 -5 -4 -4 -4
-7 -6 -6 -7 -6 -7 -7 -6 -7 -7 -8 -8 -8 -8 -8 -8 -8 -8 -8 -8 -8 -9 -9 -9 -9 -8 -8 -8 -7 -7 -8 -8 -8 -8 -7 -8 -7 -6 -6 -5 -6 -5 -5 -6
-7 -7 -7 -8 -8 -8 -8 -7 -7 -8 -8 -8 -8 -9 -9 -9 -9 -9 -8 -8 -9 -9 -9 -9 -9 -9 -8 -7 -7 -7 -7 -7 -8 -8 -8 -8 -7 -6 -6 -6 -7 -7 -7 -7
-8 -8 -9 -9 -9 -8 -8 -8 -8 -9 -9 -9 -9 -9 -10 -10 -9 -9 -9 -10 -10 -9 -9 -10 -10 -10 -9 -8 -8 -7 -7 -7 -8 -9 -9 -9 -8 -7 -7 -7 -7 -7 -8 -8
-8 -9 -9 -9 -9 -9 -9 -8 -9 -8 -9 -10 -10 -10 -10 -10 -10 -9 -9 -10 -10 -10 -10 -11 -10 -10 -10 -9 -9 -9 -9 -8 -9 -8 -9 -8 -8 -8 -8 -8 -8 -8 -8 -8
-9 -9 -9 -9 -9 -10 -10 -10 -10 -9 -9 -9 -9 -9 -9 -10 -10 -10 -10 -10 -10 -10 -10 -10 -10 -10 -10 -10 -9 -10 -11 -10 -10 -10 -10 -10 -9 -9 -9 -9 -9 -9 -9 -9
-10 -10 -10 -10 -10 -10 -10 -10 -10 -10 -10 -10 -10 -10 -10 -10 -11 -10 -10 -11 -11 -11 -11 -11 -11 -11 -11 -11 -11 -10 -10 -10 -10 -10 -10 -10 -10 -10 -9 -9 -9 -9 -9 -8
-10 -10 -11 -11 -11 -10 -10 -10 -10 -10 -10 -10 -10 -11 -11 -11 -11 -11 -11 -10 -11 -11 -11 -11 -12 -12 -11 -11 -11 -11 -10 -10 -11 -11 -9 -9 -10 -10 -9 -9 -10 -9 -9 -9
-10 -11 -11 -11 -11 -10 -10 -10 -10 -10 -11 -11 -11 -11 -11 -11 -11 -11 -11 -11 -11 -11 -11 -12 -12 -11 -11 -11 -11 -11 -10 -11 -10 -10 -10 -10 -9 -10 -10 -9 -9 -9 -9 -10
-11 -11 -11 -11 -11 -11 -11 -11 -11 -11 -11 -11 -10 -10 -11 -11 -11 -11 -11 -11 -11 -11 -12 -12 -11 -11 -12 -11 -11 -9 -9 -10 -11 -11 -11 -11 -11 -11 -11 -10 -10 -10 -10 -10
-11 -11 -11 -11 -11 -11 -10 -10 -11 -11 -11 -11 -11 -11 -11 -11 -12 -12 -11 -12 -11 -12 -12 -12 -11 -11 -12 -12 -11 -8 -10 -10 -11 -11 -11 -11 -11 -10 -10 -10 -11 -10 -10 -10
-11 -11 -11 -11 -11 -11 -11 -11 -12 -12 -11 -11 -11 -11 -12 -11 -12 -12 -12 -11 -11 -12 -12 -11 -11 -11 -12 -12 -11 -8 -10 -10 -11 -11 -10 -10 -10 -10 -10 -10 -10 -10 -10 -10
-11 -11 -11 -11 -11 -12 -12 -12 -12 -12 -11 -12 -12 -11 -11 -12 -12 -12 -11 -12 -12 -11 -11 -11 -11 -11 -12 -12 -9 -10 -11 -10 -10 -10 -11 -11 -11 -11 -11 -11 -10 -10 -10 -10
-11 -11 -12 -12 -12 -12 -12 -12 -12 -12 -12 -12 -12 -12 -12 -11 -12 -12 -11 -11 -11 -12 -11 -11 -12 -11 -11 -11 -11 -11 -10 -10 -11 -11 -11 -11 -11 -10 -10 -10 -10 -10 -9 -9
-12 -12 -12 -12 -12 -12 -12 -12 -12 -12 -11 -11 -11 -11 -11 -12 -12 -12 -12 -12 -12 -12 -10 -11 -11 -10 -11 -10 -10 -10 -10 -11 -11 -11 -11 -10 -10 -10 -10 -10 -10 -10 -10 -9
-12 -12 -13 -13 -12 -12 -12 -12 -12 -12 -12 -11 -11 -11 -12 -12 -12 -12 -12 -11 -11 -11 -11 -11 -11 -10 -10 -10 -11 -11 -11 -11 -11 -11 -12 -11 -11 -10 -10 -10 -10 -10 -9 -9
-13 -13 -13 -13 -12 -12 -12 -12 -12 -12 -12 -12 -12 -12 -11 -11 -12 -12 -12 -12 -11 -11 -11 -10 -10 -11 -10 -11 -11 -11 -11 -11 -11 -11 -12 -11 -10 -10 -10 -10 -10 -10 -9 -9
-13 -13 -13 -13 -13 -13 -12 -12 -12 -12 -11 -11 -12 -12 -11 -11 -11 -12 -12 -11 -11 -11 -11 -10 -11 -11 -11 -11 -11 -11 -11 -11 -11 -11 -11 -11 -10 -10 -10 -10 -10 -10 -10 -10
-13 -13 -13 -12 -12 -12 -12 -12 -12 -11 -11 -11 -11 -11 -12 -11 -11 -11 -11 -11 -11 -10 -10 -10 -11 -11 -11 -11 -11 -11 -11 -11 -11 -11 -11 -10 -10 -10 -10 -10 -10 -10 -9 -9
-13 -13 -13 -12 -12 -12 -12 -12 -11 -11 -11 -11 -11 -11 -11 -11 -11 -11 -11 -11 -10 -10 -10 -10 -11 -11 -11 -11 -11 -11 -11 -11 -11 -11 -11 -11 -10 -10 -10 -10 -10 -10 -10 -9
-13 -13 -12 -12 -12 -12 -12 -11 -11 -11 -11 -11 -11 -11 -11 -11 -10 -10 -10 -9 -9 -10 -10 -11 -11 -12 -12 -12 -12 -12 -12 -11 -11 -11 -11 -11 -11 -11 -10 -10 -10 -10 -10 -10
-13 -12 -12 -12 -12 -12 -11 -12 -11 -12 -11 -11 -12 -11 -11 -11 -10 -10 -10 -10 -11 -11 -11 -11 -12 -12 -13 -12 -12 -12 -12 -12 -12 -12 -12 -12 -12 -11 -11 -11 -10 -10 -10 -10

GFSNW_700_temp_207.txt.gz
Temp
-0 -1 -0 -0 -0 -0 -1 -1 -1 -2 -3 -3 -3 -3 -3 -2 -3 -3 -4 -3 -2 -1 -1 -1 -0 -0 -0 -1 -1 -1 -2 -2 -2 -2 -2 -2 -2 -2 -2 -3 -4 -4 -5 -2
-1 -1 -1 -0 -0 -0 -0 -1 -2 -3 -3 -4 -3 -4 -3 -3 -4 -4 -5 -4 -4 -3 -1 -2 -2 -2 -2 -2 -2 -2 -3 -3 -4 -3 -2 -3 -3 -3 -3 -4 -4 -5 -6 -4
-1 -1 -1 -1 -1 -0 -1 -1 -3 -4 -5 -4 -4 -4 -5 -4 -4 -5 -4 -4 -3 -2 -3 -3 -3 -4 -3 -3 -3 -4 -4 -4 -5 -4 -4 -4 -4 -4 -4 -6 -7 -7 -6 -6
-2 -0 -1 -1 -1 -1 -1 -2 -3 -3 -5 -5 -5 -5 -5 -5 -5 -6 -4 -4 -3 -4 -4 -4 -4 -4 -5 -5 -4 -5 -5 -5 -5 -5 -5 -6 -6 -5 -5 -6 -6 -7 -7 -7
-2 -1 -1 -1 -1 -1 -2 -3 -3 -4 -4 -4 -5 -5 -6 -6 -6 -6 -5 -5 -4 -4 -4 -4 -4 -4 -5 -5 -6 -6 -6 -6 -7 -6 -7 -7 -7 -6 -6 -6 -6 -6 -6 -7
-2 -2 -2 -3 -2 -3 -4 -4 -3 -4 -5 -6 -5 -5 -7 -7 -7 -6 -5 -5 -5 -5 -5 -6 -6 -6 -7 -7 -7 -7 -7 -7 -8 -8 -7 -8 -8 -7 -7 -7 -7 -7 -7 -7
-4 -5 -4 -4 -5 -5 -5 -5 -5 -6 -6 -7 -6 -6 -6 -6 -6 -6 -6 -6 -6 -6 -7 -7 -7 -7 -7 -7 -7 -8 -8 -8 -9 -9 -9 -12 -8 -7 -8 -8 -8 -8 -8 -8
-5 -5 -5 -5 -6 -6 -6 -6 -7 -7 -5 -5 -6 -6 -7 -7 -7 -7 -6 -7 -7 -7 -8 -8 -8 -8 -8 -7 -7 -7 -8 -9 -10 -10 -9 -9 -8 -7 -8 -9 -9 -8 -8 -8
-7 -7 -7 -8 -8 -7 -6 -6 -6 -5 -4 -7 -7 -7 -7 -6 -7 -8 -8 -8 -8 -8 -8 -9 -9 -9 -9 -9 -9 -9 -9 -9 -9 -9 -10 -12 -8 -8 -8 -9 -9 -8 -8 -9
-8 -8 -7 -7 -6 -6 -7 -7 -7 -7 -6 -7 -8 -7 -8 -8 -8 -8 -8 -8 -9 -9 -9 -10 -10 -10 -10 -10 -10 -9 -9 -10 -10 -10 -10 -10 -8 -9 -9 -10 -9 -9 -9 -9
-8 -8 -8 -8 -8 -7 -7 -7 -7 -7 -6 -7 -8 -8 -8 -8 -8 -8 -9 -9 -9 -9 -10 -10 -10 -10 -10 -10 -10 -10 -10 -11 -10 -10 -11 -12 -9 -9 -9 -9 -10 -10 -10 -10
-9 -9 -9 -8 -8 -8 -7 -7 -7 -8 -8 -8 -8 -8 -8 -9 -9 -9 -9 -9 -9 -10 -10 -11 -11 -11 -11 -10 -10 -10 -10 -10 -10 -11 -10 -10 -10 -10 -10 -10 -11 -11 -11 -11
-9 -9 -9 -8 -8 -8 -7 -8 -8 -8 -8 -8 -9 -9 -9 -9 -9 -10 -10 -10 -10 -11 -11 -11 -11 -11 -11 -11 -10 -10 -10 -11 -11 -11 -9 -10 -11 -11 -11 -11 -11 -10 -10 -10
-9 -9 -9 -9 -9 -9 -8 -8 -8 -8 -8 -9 -9 -9 -9 -9 -9 -10 -10 -11 -11 -11 -11 -12 -12 -11 -11 -11 -10 -10 -11 -11 -10 -11 -10 -11 -10 -10 -11 -11 -11 -11 -11 -11
-10 -10 -9 -9 -9 -9 -9 -9 -9 -9 -9 -9 -9 -10 -9 -10 -10 -10 -11 -11 -11 -11 -12 -11 -11 -11 -11 -11 -11 -10 -10 -10 -11 -11 -12 -12 -11 -11 -11 -11 -11 -11 -11 -10
-10 -10 -10 -10 -9 -9 -9 -9 -9 -9 -9 -9 -10 -10 -10 -10 -11 -11 -11 -12 -12 -12 -12 -12 -11 -11 -12 -12 -11 -10 -10 -11 -12 -11 -11 -11 -11 -11 -12 -11 -11 -11 -10 -10
-10 -10 -10 -10 -9 -9 -9 -9 -9 -10 -10 -10 -10 -10 -11 -11 -11 -12 -12 -12 -12 -12 -12 -12 -12 -12 -13 -13 -11 -9 -11 -11 -11 -11 -11 -10 -11 -11 -12 -11 -11 -11 -10 -10
-11 -11 -10 -10 -10 -10 -10 -10 -10 -10 -10 -10 -10 -11 -11 -11 -11 -12 -12 -12 -12 -12 -12 -12 -12 -12 -13 -12 -10 -11 -11 -11 -11 -11 -11 -11 -11 -11 -12 -11 -11 -10 -10 -10
-11 -11 -11 -11 -10 -10 -11 -11 -11 -11 -11 -10 -10 -11 -11 -11 -11 -12 -12 -12 -12 -12 -12 -12 -13 -13 -12 -10 -11 -11 -11 -11 -10 -11 -11 -11 -11 -11 -11 -10 -10 -10 -10 -10
-11 -11 -11 -11 -11 -11 -11 -11 -11 -11 -10 -11 -11 -11 -11 -11 -11 -12 -12 -12 -12 -12 -11 -12 -12 -11 -10 -11 -11 -11 -11 -11 -11 -11 -11 -11 -11 -11 -11 -11 -11 -11 -10 -10
-11 -11 -12 -12 -12 -12 -11 -11 -11 -11 -11 -11 -11 -11 -11 -11 -11 -12 -12 -12 -12 -11 -11 -12 -11 -11 -10 -10 -10 -11 -11 -11 -11 -11 -11 -12 -12 -11 -11 -11 -11 -11 -11 -11
-12 -12 -12 -12 -12 -12 -12 -12 -12 -12 -12 -12 -12 -12 -11 -11 -11 -12 -12 -12 -12 -11 -12 -11 -11 -10 -11 -10 -11 -11 -12 -12 -11 -11 -11 -11 -12 -12 -12 -11 -11 -11 -11 -11
-12 -12 -12 -12 -12 -12 -12 -12 -12 -12 -12 -12 -12 -12 -12 -11 -11 -12 -12 -12 -12 -12 -11 -11 -11 -11 -11 -11 -11 -12 -12 -12 -11 -11 -11 -12 -11 -11 -12 -12 -12 -11 -11 -11
-13 -13 -12 -12 -12 -12 -12 -12 -12 -12 -12 -12 -12 -12 -12 -12 -12 -12 -12 -12 -12 -11 -11 -11 -11 -11 -11 -11 -12 -12 -12 -12 -12 -12 -12 -12 -12 -12 -12 -12 -12 -12 -11 -11
-13 -13 -12 -12 -12 -12 -12 -12 -12 -12 -12 -12 -12 -11 -11 -12 -12 -11 -12 -11 -11 -11 -10 -11 -11 -12 -12 -12 -12 -12 -12 -12 -12 -12 -13 -13 -13 -12 -12 -12 -12 -12 -12 -12
-13 -13 -12 -12 -12 -12 -12 -12 -12 -12 -12 -12 -12 -12 -12 -11 -11 -11 -11 -11 -10 -10 -10 -11 -11 -12 -12 -12 -12 -13 -13 -13 -13 -13 -13 -13 -13 -13 -13 -13 -13 -13 -13 -12
-14 -13 -12 -12 -12 -12 -12 -12 -12 -12 -12 -12 -12 -12 -11 -12 -11 -11 -11 -10 -10 -11 -11 -12 -12 -12 -12 -12 -13 -13 -13 -13 -13 -14 -14 -14 -14 -14 -14 -14 -14 -13 -13 -13